Regional Weather Roundup
Issued by NWS

Home | Current Version | Previous Version | Graphics & Text | Print | Product List | Glossary On
Versions: 1 2 3 4 5 6 7 8 9 10 11 12 13 14 15 16 17 18 19 20 21 22 23 24 25 26 27 28 29
000
ASUS45 KGTF 250210
RWRMT
MONTANA HOURLY WEATHER ROUNDUP
NATIONAL WEATHER SERVICE GREAT FALLS MT
800 PM MDT FRI APR 24 2015

NOTE: "FAIR" INDICATES FEW OR NO CLOUDS BELOW 12000 FEET WITH NO
SIGNIFICANT WEATHER AND/OR OBSTRUCTIONS TO VISIBILITY.

MTZ001>007-043-250300-
WEST OF THE DIVIDE

CITY           SKY/WX    TMP DP  RH WIND       PRES   REMARKS
KALISPELL      CLOUDY    49  20  31 W8        29.74R
MISSOULA       MOCLDY    47  23  38 NW12      29.77R
BUTTE          LGT RAIN  35  33  92 NW6       29.74R WCI  30
DEER LODGE       N/A     43  34  70 NW3       29.76S
EUREKA           N/A     48  21  34 CALM      29.75R
HAMILTON         N/A     46  23  39 NW8       29.76R
LIBBY            N/A     48  27  43 SE5       29.77R
$$

MTZ008-052>055-250300-
SOUTHWEST MONTANA

CITY           SKY/WX    TMP DP  RH WIND       PRES   REMARKS
BOZEMAN        LGT RAIN  43  39  86 W20       29.69R
DILLON         LGT RAIN  38  34  85 NE14      29.71R WCI  30
$$

MTZ009-010-012-014-046-048-049-054-250300-
EAST SLOPES AND CENTRAL MONTANA

CITY           SKY/WX    TMP DP  RH WIND       PRES   REMARKS
CUT BANK       CLOUDY    47  21  35 W21       29.67R
GREAT FALLS    LGT RAIN  42  40  92 S12       29.68S
MALMSTROM AFB  LGT RAIN  46  41  83 SW7       29.70R
HELENA         CLOUDY    48  29  47 W9        29.69R
$$

MTZ011-013-016-021-045-047-050-051-250300-
NORTH CENTRAL MONTANA

CITY           SKY/WX    TMP DP  RH WIND       PRES   REMARKS
HAVRE          CLOUDY    57  35  43 VRB3      29.63R
LEWISTOWN      LGT RAIN  45  42  89 W13       29.68R
CHINOOK          N/A     59  30  33 CALM      29.63R
FORT BENTON      N/A     52  39  62 SW9       29.68R
$$

MTZ017>020-022>042-056>058-061-062-250300-
EASTERN PLAINS

CITY           SKY/WX    TMP DP  RH WIND       PRES   REMARKS
BAKER          CLOUDY    57  35  43 SE7       29.61R
BILLINGS       PTCLDY    64  36  35 SE8       29.53R
GLASGOW        MOCLDY    60  33  36 NW8       29.59R
JORDAN           N/A     60  33  36 NE12      29.59R
LIVINGSTON     LGT RAIN  46  38  73 W20       29.63R
MILES CITY     CLOUDY    54  47  77 E7        29.59F
SIDNEY         CLOUDY    63  37  39 CALM      29.60S
WOLF POINT     MOCLDY    59  45  59 E5        29.58R
BIG TIMBER       N/A     50  43  76 NW6       29.61R
FORSYTH          N/A     55  48  76 E8        29.57R
PLENTYWOOD       N/A     59  32  36 E13       29.62R
POPLAR           N/A     63  43  48 CALM      29.60R
$$

REGIONAL REPORTS...DAKOTAS

CITY           SKY/WX    TMP DP  RH WIND       PRES   REMARKS
WILLISTON      PTCLDY    61  33  35 E12       29.61S
MINOT          PTCLDY    53  35  50 NE8       29.67R
DICKINSON      CLEAR     54  33  45 E8        29.62R
BEACH          FAIR      54  32  43 E9        29.62R
CROSBY         FAIR      55  34  44 E12       29.65S
WATFORD CITY   FAIR      57  32  38 E10       29.61R
BISMARCK       CLEAR     56  41  57 E8        29.64R
GRAND FORKS    CLOUDY    49  38  65 SE9       29.78R
FARGO          CLOUDY    47  39  74 E12       29.76R
BUFFALO SD       N/A     58  34  40 E12       29.56R
RAPID CITY     CLOUDY    53  45  74 SE8       29.60R
$$

REGIONAL REPORTS...WYOMING/IDAHO/WASHINGTON

CITY           SKY/WX    TMP DP  RH WIND       PRES   REMARKS
GILLETTE       CLOUDY    57  40  52 NE8       29.62R
SHERIDAN       MOCLDY    56  39  53 CALM      29.61R
BUFFALO WY     LGT RAIN  51  41  68 E9        29.65R
CODY           CLOUDY    57  34  41 W10       29.58R
YELLOWSTONE LA   N/A     33  31  92 CALM      29.75F
IDAHO FALLS    CLOUDY    50  38  63 S20       29.69R
SALMON         CLOUDY    45  37  76 SW6       29.72S
BOISE          PTCLDY    56  28  34 N8        29.72S
SPOKANE        CLOUDY    50  28  42 S8        29.78R
$$

REGIONAL REPORTS...ALBERTA

CITY           SKY/WX    TMP DP  RH WIND       PRES   REMARKS
EDMONTON       CLOUDY    39  30  70 E14       29.78S WCI  31
CALGARY        MOCLDY    43  36  75 N15       29.67R
LETHBRIDGE     MOCLDY    50  18  27 W20G29    29.64S
MEDICINE HAT   MOCLDY    55  27  33 W12       29.61R
$$

REGIONAL REPORTS...SASKATCHEWAN

CITY           SKY/WX    TMP DP  RH WIND       PRES   REMARKS
SWIFT CURRENT  CLEAR     50  34  53 E15       29.62R
REGINA         CLOUDY    52  32  46 E17G23    29.67R
SASKATOON      MOCLDY    39  28  65 NE20G28   29.76R WCI  30
$$



USA.gov is the U.S. government's official web portal to all federal, state and local government web resources and services.